Regional Weather Roundup
Issued by NWS Upton, NY

Current Version | Previous Version | Text Only | Print | Product List | Glossary On
Versions: 1 2 3 4 5 6 7 8 9 10 11 12 13 14 15 16 17 18 19 20 21 22 23 24 25 26 27 28 29 30 31 32 33 34 35 36 37 38 39 40 41 42 43 44 45 46 47 48 49 50
350 ASUS41 KOKX 170305 RWROKX Regional Weather Roundup National Weather Service New York NY 1000 PM EST FRI FEB 16 2018 Note: "FAIR" indicates few or no clouds below 12,000 feet with no significant weather and/or obstructions to visibility. NYZ071-072-176-178-NJZ106-104-170400- New York City Metro Area CITY SKY/WX TMP DP RH WIND PRES REMARKS Central Park FAIR 39 20 46 NW10G23 30.10R WCI 32 Bronx Bot Gard N/A 37 19 48 W6 30.08R WCI 33 Bronx Lehman C N/A 37 21 52 NW12 N/A WCI 30 LaGuardia Arpt FAIR 40 23 50 NW20 30.07R WCI 30 Queens College N/A 39 23 52 NW10 N/A WCI 32 Kennedy Intl FAIR 40 23 50 NW17 30.09R WCI 31 Breezy Point N/A 37 N/A N/A NW17G25 N/A WCI 28 Brooklyn Coll N/A 39 21 48 NW18 N/A WCI 30 Staten Island N/A 39 21 48 NW15 N/A WCI 31 Newark/Liberty FAIR 39 20 46 NW23G30 30.09R WCI 28 Teterboro FAIR 38 21 50 NW17G29 30.09R WCI 28 $$ NYZ177-179-078>081-170400- Long Island New York CITY SKY/WX TMP DP RH WIND PRES REMARKS Jones Beach N/A 39 N/A N/A NW23G30 N/A WCI 29 Wantagh N/A 39 27 60 NW10 N/A WCI 32 Hempstead N/A 39 28 65 NW12 30.10R WCI 32 Matinecock Pt N/A 39 N/A N/A NW25G32 N/A WCI 28 Farmingdale FAIR 39 22 50 NW10G21 30.06R WCI 32 MacArthur/ISP FAIR 40 25 55 NW12G22 30.04R WCI 33 Shirley FAIR 39 29 67 NW12 30.04R WCI 32 Mt Sinai Harb N/A N/A N/A N/A N10 N/A Westhampton FAIR 38 25 59 N9 30.05R WCI 31 East Hampton FAIR 39 26 59 NW12G22 30.02R WCI 31 Southold N/A 39 30 70 NW13 N/A WCI 32 Montauk N/A 41 28 60 NW17G29 30.02R $$ NYZ052-065-067-170400- Hudson Valley CITY SKY/WX TMP DP RH WIND PRES REMARKS White Plains FAIR 36 21 54 NW15 30.04R WCI 27 Larchmont Harb N/A 37 N/A N/A W17G25 N/A WCI 28 Croton On Huds N/A 37 N/A N/A NW14G21 N/A WCI 29 Somers N/A 34 23 64 NW6 N/A WCI 29 Brewster N/A 34 21 60 NW8 N/A WCI 27 Newburgh PTCLDY 34 19 55 NW8 30.08R WCI 27 Montgomery FAIR 34 16 47 NW13G20 30.08R WCI 25 Otisville N/A 32 16 51 W7 N/A WCI 26 Warwick N/A 32 18 55 NW12 N/A WCI 23 Suffern N/A 34 19 55 NW10G22 N/A WCI 26 Poughkeepsie FAIR 36 19 50 NW9 30.07R WCI 29 Albany FLURRIES 34 19 54 N9 30.11R WCI 27 $$ NJZ001-105-106-008-010-013-015-019>022-104-170400- New Jersey CITY SKY/WX TMP DP RH WIND PRES REMARKS Newark/Liberty FAIR 39 20 46 NW23G30 30.09R WCI 28 Teterboro FAIR 38 21 50 NW17G29 30.09R WCI 28 Caldwell FAIR 36 15 42 NW14G23 30.11R WCI 27 Somerville FAIR 37 20 50 NW16G28 30.10R WCI 28 Linden FAIR 38 20 49 NW17G25 30.11R WCI 28 Perth Amboy N/A 39 N/A N/A NW20G30 N/A WCI 30 Sussex FAIR 34 15 46 NW10G20 30.12R WCI 26 Andover N/A 33 16 49 NW12G18 30.11R WCI 24 Trenton FAIR 39 23 52 NW14G23 30.11R WCI 31 Millville FAIR 45 29 53 NW14 30.11R Atlantic City FAIR 44 28 53 N10G21 30.11R Wrightstown FAIR 40 27 59 NW17G26 30.08R WCI 31 Toms River FAIR 40 28 62 N13G20 30.10R WCI 32 Belmar FAIR 39 21 48 NW18G26 30.10 WCI 30 $$ PAZ047>061-062-071-170400- Eastern Pennsylvania CITY SKY/WX TMP DP RH WIND PRES REMARKS Philadelphia MOCLDY 42 26 53 N6G23 30.14R Allentown FAIR 38 21 50 N13 30.13R WCI 30 Scranton CLOUDY 31 20 63 N12 30.14R WCI 22 $$ CTZ002-004>006-009-010-012-RIZ004-006-007-MAZ004-011-015-170400- Southern New England In CT CITY SKY/WX TMP DP RH WIND PRES REMARKS Bradley Intl FAIR 37 20 50 N12 30.03R WCI 29 Hartford CLOUDY 40 26 57 NW12G17 30.03R WCI 33 Danbury FAIR 37 21 52 NW8 30.05R WCI 31 Wtrbury/Oxford FAIR 35 23 61 NW17G25 30.01R WCI 25 Norwalk Harbor N/A 37 N/A N/A NW15 N/A WCI 28 Bridgeport FAIR 39 23 52 NW10G21 30.04R WCI 32 Meriden MOCLDY 38 25 59 NW15 30.03R WCI 29 New Haven FAIR 40 23 50 N13G23 30.03R WCI 32 Chester FAIR 37 25 60 NW10G21 30.00R WCI 30 Groton FAIR 40 24 53 NW16G24 29.99R WCI 31 Willimantic FAIR 39 20 46 NW13G24 30.00R WCI 31 In RI CITY SKY/WX TMP DP RH WIND PRES REMARKS Providence FAIR 41 23 48 NW10G21 29.97R Block Island FAIR 40 28 62 NW13G20 29.99R WCI 32 Westerly FAIR 41 27 57 NW10G17 29.99R In MA CITY SKY/WX TMP DP RH WIND PRES REMARKS Boston FAIR 37 24 59 NW17G26 29.97R WCI 27 Worcester FAIR 33 17 51 NW14G22 29.94R WCI 23 Westfield FAIR 36 18 48 NW13G24 30.03R WCI 27 Provincetown FAIR 38 25 59 NW25G33 29.94R WCI 27 Nantucket FAIR 40 32 73 N25G32 29.91R WCI 29 $$ ANZ330-335-338-340-345-350-353-355-170400- Coastal Marine Observations STATION/POSITION TIME SKY/WX TEMP WIND PRES VSBY WAVE AIR SEA DIR/SP/G HT/PER (UTC) (F) (DEG/KT/KT) (MB) (MI) (FT/S) NY Harb Entrance 0250 41 40 320/ 21/ 25 1017.7 4/ 5 20 S Fire Island 0150 42 41 320/ 19/ 23 1015.1 6/ 5 15 E Barnegat Li 0230 41 N/A 7/ 5 Hudson Canyon 0250 45 47 330/ 27/ 31 1015.6 7/ 6 Kings Point 0230 39 37 10/ 18/ 22 1018.7 Execution Rocks NOT AVBL Western LI Sound NOT AVBL Central LI Sound 0153 40 330/ 17/ 25 N/A 3 Robbins Reef 0230 40 320/ 22/ 27 1018.6 $$ >>>>>>>>>>>>>>>>>>>>>>>>>>>> KEY <<<<<<<<<<<<<<<<<<<<<<<<<<< > < > SKY/WX - Sky Condition/Present Weather < > TMP - Temperature in Fahrenheit < > DP - Dew Point in Fahrenheit < > RH - Relative Humidity in Percent < > WIND - Direction (from) and Speed in MPH < > PRES - Mean Sea Level Pressure (inches of Hg) < > WCI - Wind Chill Index < > VSB - Visibility in Miles < > HX - Heat Index < > TC - Temperature in Celsius < > VRB - Varibale Wind Direction < > < >>>>>>>>>>>>>>>>>>>>>>>>>>>> KEY <<<<<<<<<<<<<<<<<<<<<<<<<<<

USA.gov is the U.S. government's official web portal to all federal, state and local government web resources and services.